• MPC Preparation (Info)

  • MPEC 2015-S24 : 2015 RF83

    The following Minor Planet Electronic Circular may be linked-to from your own Web pages, but must not otherwise be redistributed electronically.

    A form allowing access to any MPEC is at the bottom of this page.


    Read MPEC 2015-S23 Read MPEC 2015-S25


    M.P.E.C. 2015-S24                                Issued 2015 Sept. 17, 14:09 UT
    
         The Minor Planet Electronic Circulars contain information on unusual
             minor planets and routine data on comets.  They are published
        on behalf of Division F of the International Astronomical Union by the
              Minor Planet Center, Smithsonian Astrophysical Observatory,
                              Cambridge, MA 02138, U.S.A.
    
                 Prepared using the Tamkin Foundation Computer Network
    
                                  MPC@CFA.HARVARD.EDU
                URL https://www.minorplanetcenter.net/    ISSN 1523-6714
    
                                       2015 RF83
    
    Observations:
         K15R83F* C2015 09 11.46838 00 08 43.781+02 24 24.04         21.9 wLES024F51
         K15R83F  C2015 09 11.48044 00 08 46.362+02 23 59.81         21.8 wLES024F51
         K15R83F  C2015 09 11.49409 00 08 49.298+02 23 31.73         21.9 wLES024F51
         K15R83F KC2015 09 12.29511100 11 56.78 +01 56 22.5          22.0 VuES024H21
         K15R83F KC2015 09 12.30463900 11 58.78 +01 56 03.6          22.1 VuES024H21
         K15R83F KC2015 09 12.31311800 12 00.61 +01 55 46.4          22.4 VuES024H21
         K15R83F _C2015 09 12.40083900 12 22.930+01 53 07.33         21.7 RtES024568
         K15R83F _C2015 09 12.40189900 12 23.143+01 53 05.20         21.7 RtES024568
         K15R83F _C2015 09 12.40296500 12 23.369+01 53 03.03         21.6 RtES024568
         K15R83F _C2015 09 16.39826600 26 51.462-00 16 48.41         21.1 RtES024568
         K15R83F _C2015 09 16.39934800 26 51.654-00 16 50.50         21.5 RtES024568
         K15R83F _C2015 09 16.40048000 26 51.863-00 16 52.60         21.5 RtES024568
    
    Observer details:
    568 Mauna Kea.  Observers R. J. Wainscoat, D. Woodworth, L. Wells.  Measurers
        M. Micheli, R. J. Wainscoat.  3.6-m Canada-France-Hawaii Telescope + CCD.
    F51 Pan-STARRS 1, Haleakala.  Observers B. Gibson, T. Goggia, N. Primak,
        A. Schultz, M. Willman.  Measurers K. Chambers, S. Chastel, L. Denneau,
        H. Flewelling, M. Huber, E. Lilly, E. Magnier, R. Wainscoat, C. Waters,
        R. Weryk.  1.8-m Ritchey-Chretien + CCD.
    H21 Astronomical Research Observatory, Westfield.  Observer R. Holmes.
        Measurers S. Foglia, L. Buzzi, T. Linder, R. Holmes.  1.3-m f/4.0
        astrograph + CCD.
    
    Orbital elements:
    2015 RF83                                                Earth MOID = 0.1420 AU
    Epoch 2015 June 27.0 TT = JDT 2457200.5                 MPC
    M 339.67445              (2000.0)            P               Q
    n   0.31480575     Peri.  167.05830     +0.93142939     +0.36346888
    a   2.1401339      Node   171.56072     -0.34394420     +0.89550437
    e   0.4637316      Incl.    7.10659     -0.11891878     +0.25683125
    P   3.13           H   24.9           G   0.15           U   7
    Residuals in seconds of arc
    150911 F51  0.1-  0.0     150912 H21  0.3-  0.4+    150912 568  0.1+  0.1-
    150911 F51  0.1-  0.2+    150912 H21  0.1+  0.2+    150916 568  0.0   0.0
    150911 F51  0.2+  0.3-    150912 568  0.2+  0.0     150916 568  0.1-  0.1-
    150912 H21  0.1+  0.2+    150912 568  0.1+  0.0     150916 568  0.1-  0.0
    
    Ephemeris:
    2015 RF83                a,e,i = 2.14, 0.46, 7                   q = 1.1477
    Date    TT    R. A. (2000) Decl.     Delta      r     Elong.  Phase     V
    2015 08 18    22 16 56.7 +13 21 29   0.1593  1.1558   152.3    24.0    22.3
    ...
    2015 09 02    23 27 23.8 +07 40 02   0.1461  1.1480   160.6    17.0    21.9
    ...
    2015 09 10    00 02 49.8 +03 14 24   0.1508  1.1533   164.6    13.4    21.9
    ...
    2015 09 16    00 25 28.2 -00 03 55   0.1598  1.1616   166.5    11.6    22.0
    2015 09 17    00 28 51.3 -00 35 14   0.1617  1.1633   166.8    11.4    22.0
    2015 09 18    00 32 07.7 -01 05 51   0.1637  1.1651   166.9    11.2    22.0
    ...
    2015 09 24    00 49 25.4 -03 52 12   0.1783  1.1780   167.4    10.7    22.2
    ...
    2015 10 02    01 06 42.9 -06 40 37   0.2039  1.2003   166.5    11.2    22.5
    ...
    2015 10 17    01 26 00.2 -09 13 39   0.2695  1.2557   161.8    14.4    23.4
    
    A. U. Tomatic                (C) Copyright 2015 MPC           M.P.E.C. 2015-S24
    

    Read MPEC 2015-S23 Read MPEC 2015-S25


    MPEC number:

    Enter an MPEC number in one of the following forms:

    • 1997-B01 (the full form)
    • J97B01 (the packed version of the full form)
    • B01 (the abbreviated form)